Regional Weather Roundup
Issued by NWS Sioux Falls, SD

Home | Current Version | Previous Version | Graphics & Text | Print | Product List | Glossary Off
Versions: 1 2 3 4 5 6 7 8 9 10 11 12 13 14 15 16 17 18 19 20 21 22 23 24 25 26 27 28 29 30 31 32 33 34 35 36 37 38 39 40 41 42 43 44 45 46 47 48 49 50

418
ASUS43 KFSD 050810
RWRFSD

WEATHER ROUNDUP FOR SE SOUTH DAKOTA/SW MINNESOTA/NW IOWA
NATIONAL WEATHER SERVICE SIOUX FALLS SD
300 AM CDT THU MAY 05 2016

NOTE: "FAIR" INDICATES FEW OR NO CLOUDS BELOW 12,000 FEET WITH NO
SIGNIFICANT WEATHER AND OR OBSTRUCTIONS TO VISIBILITY.


SDZ038>040-050-052>070-050900-
SOUTHEAST SOUTH DAKOTA

CITY           SKY/WX    TMP DP  RH WIND       PRES   REMARKS
BROOKINGS      CLEAR     45  34  65 SE3       30.01F
CHAMBERLAIN    PTCLDY    52  45  76 CALM      30.02F
HURON          CLEAR     48  41  76 CALM      30.00F
MADISON        FAIR      46  37  71 CALM      30.02F
MITCHELL       CLEAR     48  43  82 CALM      30.02F
SIOUX FALLS    CLEAR     43  36  76 CALM      30.03R
WINNER         FAIR      54  38  54 SW9       30.04S
YANKTON        CLEAR     48  39  71 CALM      30.03S
$$

MNZ071-072-080-081-089-090-097-098-050900-
SOUTHWEST MINNESOTA

CITY           SKY/WX    TMP DP  RH WIND       PRES   REMARKS
FAIRMONT       CLEAR     45  30  57 W5        30.00S
JACKSON        CLEAR     45  32  61 CALM      30.02S
LUVERNE        CLEAR     43  34  70 CALM      30.02F
MARSHALL       CLEAR     46  32  58 SW5       30.00F
MONTEVIDEO     CLEAR     46  34  61 S3        30.01S
PIPESTONE      CLEAR     46  32  57 CALM      30.02S
REDWOOD FALLS  CLEAR     49  29  46 CALM      30.00S
TRACY          CLEAR     48  34  58 SW7       30.01S
WINDOM         CLEAR     43  34  70 CALM      30.01S
WORTHINGTON    CLEAR     45  34  65 W5        30.02F
$$

IAZ001>003-012>014-020>022-031-032-NEZ013-014-SDZ071-050900-
NORTHWEST IOWA

CITY           SKY/WX    TMP DP  RH WIND       PRES   REMARKS
CHEROKEE       CLEAR     42  40  95 CALM      30.02S
DENISON        CLEAR     43  39  87 CALM      30.00S
ESTHERVILLE    CLEAR     40  35  83 W8        30.01S
LE MARS        CLEAR     43  39  87 CALM      30.03F
ORANGE CITY    CLEAR     50  36  57 CALM      30.02F
SHELDON        CLEAR     41  36  81 CALM      30.01S
SIOUX CITY     CLEAR     44  37  76 NW6       30.03S
SPENCER        CLEAR     40  35  83 W3        30.02S
STORM LAKE     CLEAR     50  36  57 N5        30.02F
$$

ABBREVIATIONS USED IN REMARKS
   TC - TEMPERATURE IN CELSIUS
  WCI - WIND CHILL INDEX
   HX - HEAT INDEX
  VSB - VISIBILITY





USA.gov is the U.S. government's official web portal to all federal, state and local government web resources and services.